Weather History for KBXA - March, 2013

Change the Weather History Date:

Saturday, March 2, 2013

  Actual Average Record
Temperature  
Mean Temperature 37 °F -  
Max Temperature 44 °F 69 °F 77 °F (2014)
Min Temperature 30 °F 45 °F 30 °F (2013)
Degree Days  
Heating Degree Days 28    
Moisture  
Dew Point 15 °F    
Average Humidity 48    
Maximum Humidity 93    
Minimum Humidity 20    
Precipitation  
Precipitation 0.00 in - - ()
Sea Level Pressure  
Sea Level Pressure 30.22 in    
Wind  
Wind Speed 5 mph (North)    
Max Wind Speed 17 mph    
Max Gust Speed 24 mph    
Visibility 10 miles    
Events      
Averages and records for this station are not official NWS values.
T = Trace of Precipitation, MM = Missing Value Source: NWS Daily Summary

Daily Weather History Graph

Daily Weather History Graph

Search for Another Location

Airport or City:

Trip Planner

Search our weather history database for the weather conditions in past years. The results will help you decide how hot, cold, wet, or windy it might be!

Date:

Astronomy

Mar. 02, 2013 Rise Set
Actual Time 6:24 AM CST 5:58 PM CST
Civil Twilight 6:00 AM CST 6:23 PM CST
Nautical Twilight 5:32 AM CST 6:51 PM CST
Astronomical Twilight 5:04 AM CST 7:19 PM CST
Moon 11:12 PM CST (3/2) 9:16 AM CST (3/2)
Length of Visible Light 12h 22m
Length of Day
11h 34m
Waning Gibbous, 74% of the Moon is Illuminated
Mar 2
Waning Gibbous
Mar 4
Last Quarter
Mar 11
New
Mar 19
First Quarter
Mar 27
Full

Hourly Weather History & Observations

Time (CST) Temp. Windchill Dew Point Humidity Pressure Visibility Wind Dir Wind Speed Gust Speed Precip Events Conditions
12:15 AM 33.8 °F 29.6 °F 19.0 °F 55% 30.19 in 10.0 mi NNE 4.6 mph - N/A   Unknown
12:35 AM 33.1 °F 30.0 °F 20.1 °F 59% 30.19 in 10.0 mi North 3.5 mph - N/A   Unknown
12:55 AM 32.9 °F - 19.4 °F 58% 30.19 in 10.0 mi Calm Calm - N/A   Unknown
1:15 AM 32.2 °F - 26.4 °F 79% 30.19 in 10.0 mi Calm Calm - N/A   Unknown
1:35 AM 32.2 °F - 30.0 °F 92% 30.19 in 10.0 mi Calm Calm - N/A   Unknown
1:55 AM 31.8 °F - 30.0 °F 93% 30.19 in 10.0 mi Calm Calm - N/A   Unknown
2:15 AM 32.0 °F - 29.3 °F 90% 30.18 in 10.0 mi Calm Calm - N/A   Unknown
2:35 AM 32.0 °F - 29.7 °F 91% 30.18 in 10.0 mi Calm Calm - N/A   Unknown
2:55 AM 31.1 °F - 28.8 °F 91% 30.17 in 10.0 mi Calm Calm - N/A   Unknown
3:15 AM 30.7 °F - 28.8 °F 92% 30.17 in 10.0 mi Calm Calm - N/A   Unknown
3:35 AM 30.9 °F - 28.8 °F 92% 30.18 in 10.0 mi Calm Calm - N/A   Unknown
3:55 AM 30.6 °F - 28.4 °F 92% 30.18 in 10.0 mi Calm Calm - N/A   Unknown
4:15 AM 31.1 °F - 28.2 °F 89% 30.18 in 10.0 mi Calm Calm - N/A   Unknown
4:35 AM 31.1 °F - 28.6 °F 90% 30.19 in 10.0 mi Calm Calm - N/A   Unknown
4:55 AM 31.6 °F - 28.0 °F 87% 30.19 in 10.0 mi Calm Calm - N/A   Unknown
5:15 AM 31.1 °F - 28.0 °F 88% 30.19 in 10.0 mi Calm Calm - N/A   Unknown
5:35 AM 31.1 °F - 28.4 °F 90% 30.20 in 10.0 mi Calm Calm - N/A   Unknown
5:55 AM 31.3 °F - 27.7 °F 87% 30.20 in 10.0 mi Calm Calm - N/A   Unknown
6:15 AM 30.4 °F - 27.3 °F 88% 30.21 in 10.0 mi Calm Calm - N/A   Unknown
6:35 AM 30.0 °F - 27.3 °F 90% 30.21 in 10.0 mi Calm Calm - N/A   Unknown
6:55 AM 31.1 °F - 28.2 °F 89% 30.22 in 10.0 mi Calm Calm - N/A   Unknown
7:15 AM 32.2 °F - 28.6 °F 87% 30.22 in 10.0 mi Calm Calm - N/A   Unknown
7:35 AM 33.4 °F - 27.3 °F 78% 30.23 in 10.0 mi Calm Calm - N/A   Unknown
7:55 AM 36.0 °F 30.3 °F 19.9 °F 52% 30.23 in 10.0 mi NNW 6.9 mph - N/A   Unknown
8:15 AM 38.5 °F 34.1 °F 19.4 °F 46% 30.23 in 10.0 mi NNW 5.8 mph - N/A   Unknown
8:35 AM 40.6 °F 35.4 °F 17.1 °F 39% 30.24 in 10.0 mi North 8.1 mph - N/A   Unknown
8:55 AM 41.0 °F 36.4 °F 13.1 °F 32% 30.24 in 10.0 mi North 6.9 mph - N/A   Unknown
9:15 AM 42.1 °F 36.1 °F 14.4 °F 33% 30.24 in 10.0 mi NNE 10.4 mph - N/A   Unknown
9:35 AM 43.2 °F 37.4 °F 14.4 °F 31% 30.23 in 10.0 mi NNE 10.4 mph - N/A   Unknown
9:55 AM 43.2 °F 37.9 °F 12.6 °F 29% 30.23 in 10.0 mi North 9.2 mph - N/A   Unknown
10:15 AM 43.9 °F 39.3 °F 11.5 °F 27% 30.23 in 10.0 mi NNW 8.1 mph - N/A   Unknown
10:35 AM 44.4 °F 38.6 °F 10.6 °F 25% 30.23 in 10.0 mi NNE 11.5 mph - N/A   Unknown
10:55 AM 44.2 °F 39.7 °F 10.4 °F 25% 30.23 in 10.0 mi NW 8.1 mph 19.6 mph N/A   Unknown
11:15 AM 44.1 °F 38.6 °F 9.9 °F 25% 30.23 in 10.0 mi NW 10.4 mph 17.3 mph N/A   Unknown
11:35 AM 44.1 °F 38.1 °F 8.8 °F 24% 30.22 in 10.0 mi NNW 11.5 mph - N/A   Unknown
11:55 AM 43.9 °F 37.5 °F 7.3 °F 22% 30.22 in 10.0 mi NNW 12.7 mph 19.6 mph N/A   Unknown
12:35 PM 43.9 °F 36.8 °F 7.0 °F 22% 30.20 in 10.0 mi NNW 15.0 mph 19.6 mph N/A   Unknown
12:55 PM 44.6 °F 37.8 °F 6.1 °F 21% 30.19 in 10.0 mi NW 15.0 mph 21.9 mph N/A   Unknown
1:15 PM 43.7 °F 36.0 °F 5.7 °F 21% 30.19 in 10.0 mi NNW 17.3 mph 24.2 mph N/A   Unknown
1:35 PM 43.7 °F 36.6 °F 7.5 °F 23% 30.18 in 10.0 mi NNW 15.0 mph 21.9 mph N/A   Unknown
1:55 PM 43.2 °F 36.6 °F 6.1 °F 22% 30.18 in 10.0 mi NNW 12.7 mph 18.4 mph N/A   Unknown
2:15 PM 42.3 °F 35.5 °F 7.7 °F 24% 30.18 in 10.0 mi North 12.7 mph 17.3 mph N/A   Unknown
2:35 PM 42.8 °F 37.5 °F 8.4 °F 24% 30.18 in 10.0 mi NNW 9.2 mph 17.3 mph N/A   Unknown
2:55 PM 42.4 °F 35.3 °F 7.9 °F 24% 30.18 in 10.0 mi NNW 13.8 mph 18.4 mph N/A   Unknown
3:15 PM 42.8 °F 36.2 °F 7.7 °F 24% 30.18 in 10.0 mi NNW 12.7 mph - N/A   Unknown
3:55 PM 42.8 °F 35.8 °F 5.0 °F 21% 30.18 in 10.0 mi NNW 13.8 mph 20.7 mph N/A   Unknown
4:15 PM 42.8 °F 35.4 °F 4.1 °F 20% 30.18 in 10.0 mi North 15.0 mph - N/A   Unknown
4:35 PM 42.6 °F 34.6 °F 3.7 °F 20% 30.18 in 10.0 mi North 17.3 mph 21.9 mph N/A   Unknown
4:55 PM 41.5 °F 34.2 °F 4.5 °F 22% 30.19 in 10.0 mi NNW 13.8 mph 19.6 mph N/A   Unknown
5:15 PM 41.0 °F 34.3 °F 7.2 °F 25% 30.21 in 10.0 mi North 11.5 mph 17.3 mph N/A   Unknown
5:35 PM 40.3 °F 33.0 °F 7.3 °F 26% 30.22 in 10.0 mi North 12.7 mph 19.6 mph N/A   Unknown
5:55 PM 39.7 °F 32.3 °F 8.1 °F 27% 30.22 in 10.0 mi North 12.7 mph 18.4 mph N/A   Unknown
6:15 PM 39.4 °F 31.8 °F 7.0 °F 26% 30.23 in 10.0 mi North 12.7 mph 17.3 mph N/A   Unknown
6:35 PM 39.2 °F 33.0 °F 7.7 °F 27% 30.24 in 10.0 mi North 9.2 mph 17.3 mph N/A   Unknown
6:55 PM 39.2 °F 33.0 °F 8.2 °F 28% 30.24 in 10.0 mi North 9.2 mph 17.3 mph N/A   Unknown
7:15 PM 39.0 °F 30.6 °F 7.3 °F 27% 30.25 in 10.0 mi North 15.0 mph 19.6 mph N/A   Unknown
7:35 PM 38.8 °F 30.4 °F 5.4 °F 25% 30.26 in 10.0 mi North 15.0 mph 21.9 mph N/A   Unknown
7:55 PM 38.5 °F 32.1 °F 7.0 °F 27% 30.26 in 10.0 mi North 9.2 mph 17.3 mph N/A   Unknown
8:15 PM 38.5 °F 29.9 °F 5.2 °F 25% 30.27 in 10.0 mi North 15.0 mph 23.0 mph N/A   Unknown
8:35 PM 38.3 °F 29.3 °F 4.1 °F 24% 30.27 in 10.0 mi North 16.1 mph 23.0 mph N/A   Unknown
8:55 PM 37.0 °F 30.4 °F 4.8 °F 26% 30.28 in 10.0 mi North 9.2 mph - N/A   Unknown
9:15 PM 35.2 °F 30.3 °F 7.7 °F 32% 30.27 in 10.0 mi North 5.8 mph - N/A   Unknown
9:35 PM 34.9 °F - 8.4 °F 33% 30.28 in 10.0 mi Calm Calm - N/A   Unknown
9:55 PM 33.8 °F 30.8 °F 11.3 °F 39% 30.28 in 10.0 mi NNW 3.5 mph - N/A   Unknown
10:15 PM 32.7 °F 29.6 °F 11.5 °F 41% 30.28 in 10.0 mi North 3.5 mph - N/A   Unknown
10:35 PM 32.0 °F 28.7 °F 12.7 °F 45% 30.28 in 10.0 mi North 3.5 mph - N/A   Unknown
11:15 PM 31.8 °F - 13.5 °F 47% 30.26 in 10.0 mi Calm Calm - N/A   Unknown
11:35 PM 30.2 °F - 14.5 °F 52% 30.26 in 10.0 mi Calm Calm - N/A   Unknown